MOZHAYETS

Satellite information

Favourite Embed

Satellite Type and Status

PAYLOADIN ORBIT

Key statistics

Satellite MOZHAYETS at a glance.

Uptime

8258

Days in orbit

Revolutions

≈ 14.6

Per day

Orbit

SSO

Sun Synchronous Orbit

Inclination

98.5

Latest

Satellite identification and parameters

Extended collection of information and parameters for MOZHAYETS.

Object identification

Identified? True

Debris? False

Object name: MOZHAYETS

International designator: 2002-054B

Object number (NORAD): 27560

Object ID (CCSDS): 27560

Country: COMMONWEALTH OF INDEPENDENT STATES (CIS)

Current information (Y/N): Y

RCS size: LARGE

Orbital parameters

Period: 98.547 minutes

Inclination: 98.4766 deg

SMA: 7067.341 km

Apoapsis: 716.608 km

Periapsis: 661.803 km

RAAN: 31.8119 deg

Eccentricy: 0.0038773

Argument of periapsis: 10.6884 deg

Mean anomaly: 47.1653 deg

Mean motion: 14.61230492 rev/day

Mean motion (dot): 0.00000392 rev/day2

B* drag term: 0.000088998 1/REarth

Two-line elements (TLE)

Creation date: July 6, 2025, 10:46 p.m.

Reference frame: TEME

Reference center: EARTH

Epoch: July 6, 2025, 8:42 p.m. UTC

TLE line 0: 0 MOZHAYETS

TLE line 1: 1 27560U 02054B 25187.86301109 .00000392 00000-0 88998-4 0 9992

TLE line 2: 2 27560 98.4766 31.8119 0038773 10.6884 47.1653 14.61230492200774

Live tracking on map

Real-time ground track for satellite MOZHAYETS.

In-orbit conjunctions

There are no conjunctions computed for MOZHAYETS, at the moment. Check back to stay up to date, as we update our databases every day.

Go to all conjunctions

Associated space launch

ALSAT 1 was an Algerian imaging minisatellite. The 90-kg satellite was the first part of an international Disaster Monitoring System (DMS) for alerting natural/man-made disasters.

MOZHAYETS was lifted into orbit during the mission ‘Kosmos-3M | AlSat-1’, on board a Kosmos-3M space rocket.

The launch took place on Nov. 28, 2002, 6:07 a.m. from 132/1 (132L).

For more information about the launch, click the button.

Launch to space Kosmos-3M | AlSat-1
Kosmos-3M | AlSat-1

Agency: N/A

Status: Launch Successful

Launch date: Nov. 28, 2002, 6:07 a.m. UTC

Rocket: Kosmos-3M

Launch pad: 132/1 (132L)

Location: Plesetsk Cosmodrome, Russian Federation

...

Latest news about this satellite

There are no fresh news available about this satellite. Check back as we update our databases every day.


Newsletter sign-up

Weekly statistics, charts and insights to help you stay on top of the space industry.